Location: Cottbus
(51.7000°N, 14.3000°E)
Time: 20:25:43
(UTC+01:00)

ISS - Pass Details

Date: 29 January 2019
Orbit: 403 x 411 km, 51.6° (Epoch: 21 February)

Event Time Altitude Azimuth Distance (km) Brightness Sun altitude
Rises 18:16:04 0° 253° (WSW) 2,332 2.0 -14.0°
Reaches altitude 10° 18:18:09 10° 251° (WSW) 1,474 0.4 -14.3°
Maximum altitude 18:21:27 73° 166° (SSE) 433 -3.8 -14.8°
Enters shadow 18:22:45 34° 89° (E) 707 -3.2 -15.0°
